Location: Houhaj�rvi
(61.2833°N, 23.0000°E)
Time: 06:21:11
(UTC+00:00)

Lacrosse 4 Rocket - Pass Details

Date: 27 February 2020
Orbit: 537 x 622 km, 68.0° (Epoch: 09 April)

Event Time Altitude Azimuth Distance (km) Brightness Sun altitude
Rises 21:04:52 0° 304° (WNW) 2,861 5.8 -34.1°
Reaches altitude 10° 21:07:09 10° 309° (NW) 1,968 4.8 -34.3°
Enters shadow 21:08:40 21° 316° (NW) 1,406 3.9 -34.3°
